This demonstration page uses our WeatherBlox Daily Observations layout. Learn more.

Left ArrowRight Arrow

39.08367, -84.50855

Hourly Observations for November 1, 2018

Temp ( °F °C ) Dew Point ( °F °C ) Humidity (%) Winds ( mph kmh ) Pressure ( in mb ) Visibility ( mi km ) Precip ( " mm )
12:53 am 00:53 Cloudy 58 14.4 58 14.4 100 100 Calm 29.85 1011 10 16 0.00 0.03
1:53 am 01:53 Cloudy with Rain 57 13.9 57 13.9 100 100 Calm 29.83 1010 3 5 0.07 1.78
2:03 am 02:03 Cloudy with Rain 57 13.9 57 13.9 100 100 Calm 29.83 1010 3 4 0.03 0.76
2:13 am 02:13 Cloudy with Rain 58 14.4 58 14.4 100 100 Calm 29.83 1010 4 6 0.05 1.27
2:53 am 02:53 Cloudy with Heavy Rain 57 13.9 57 13.9 100 100 Calm 29.81 1010 3 4 0.16 4.06
3:27 am 03:27 Cloudy with Rain 56 13.3 56 13.3 100 100 N 9 15 29.80 1009 5 8 0.13 3.30
3:53 am 03:53 Cloudy with Heavy Rain 55 12.8 55 12.8 100 100 N 7 11 29.80 1009 4 6 0.23 5.84
4:53 am 04:53 Cloudy with Heavy Rain 54 12.2 54 12.2 100 100 NNE 8 13 29.78 1009 2 3 0.27 6.86
5:04 am 05:04 Cloudy with Rain 54 12.2 54 12.2 100 100 NNE 9 15 29.80 1009 4 6 0.04 1.02
5:40 am 05:40 Cloudy with Light Rain 54 12.2 54 12.2 100 100 NE 6 9 29.80 1009 10 16 0.09 2.29
5:53 am 05:53 Cloudy with Light Rain 54 12.2 54 12.2 100 100 N 10 17 29.78 1008 10 16 0.10 2.54
6:11 am 06:11 Cloudy with Light Rain 53 11.7 53 11.7 100 100 VRB 7 11 29.83 1010 10 16 0.01 0.25
6:32 am 06:32 Cloudy with Rain 53 11.7 53 11.7 100 100 NNE 9 15 29.83 1010 7 11 0.04 1.02
6:53 am 06:53 Cloudy with Rain 53 11.7 53 11.7 100 100 NNE 8 13 29.76 1008 6 10 0.05 1.27
6:57 am 06:57 Cloudy with Rain 53 11.7 53 11.7 100 100 NE 7 11 29.80 1009 10 16 0.01 0.25
7:09 am 07:09 Cloudy with Rain 53 11.7 53 11.7 100 100 NE 5 7 29.80 1009 6 10 0.01 0.25
7:53 am 07:53 Cloudy with Rain 52 11.1 52 11.1 100 100 N 8 13 29.74 1007 5 8 0.05 1.27
8:53 am 08:53 Cloudy with Rain 52 11.1 52 11.1 100 100 NE 7 11 29.72 1007 4 6 0.08 2.03
9:53 am 09:53 Cloudy with Rain 52 11.1 52 11.1 100 100 NE 8 13 29.70 1006 5 8 0.07 1.78
10:53 am 10:53 Cloudy with Rain 52 11.1 52 11.1 100 100 NNE 7 11 29.67 1005 4 6 0.09 2.29
10:56 am 10:56 Cloudy with Rain 52 11.1 52 11.1 100 100 NNE 7 11 29.71 1006 3 4 0.01 0.25
11:06 am 11:06 Cloudy with Rain 52 11.1 52 11.1 100 100 N 7 11 29.68 1005 4 6 0.04 1.02
11:36 am 11:36 Cloudy with Heavy Rain 53 11.7 53 11.7 100 100 Calm 29.65 1004 2 3 0.16 4.06
11:53 am 11:53 Cloudy with Rain 54 12.2 54 12.2 100 100 NE 6 9 29.62 1003 3 4 0.23 5.84
11:57 am 11:57 Cloudy with Rain 54 12.2 54 12.2 100 100 N 5 7 29.62 1003 3 5 0.01 0.25
12:06 pm 12:06 Cloudy with Rain 56 13.3 56 13.3 100 100 Calm 29.62 1003 3 4 0.02 0.51
12:46 pm 12:46 Cloudy with Light Rain 59 15 59 15 100 100 VRB 3 6 29.59 1002 4 6 0.06 1.52
12:51 pm 12:51 Cloudy with Light Rain 61 16 59 15 94 94 SE 6 9 29.56 1001 4 6 0.06 1.52
12:53 pm 12:53 Cloudy with Light Rain 60 15.6 59 15 96 96 SSE 8 13 29.57 1001 4 6 0.06 1.52
1:24 pm 13:24 Cloudy with Light Rain 62 16.7 60 15.6 93 93 S 13 20 29.56 1001 10 16 0.01 0.25
1:53 pm 13:53 Cloudy with Light Rain 62 16.7 61 16.1 96 96 S 8 13 29.54 1001 10 16 0.01 0.25
2:53 pm 14:53 Cloudy with Light Rain 63 17.2 61 16.1 93 93 S 10 17 29.52 1000 10 16 0.01 0.25
3:53 pm 15:53 Cloudy 64 17.8 62 16.7 93 93 S 13 20 29.49 999 10 16 0.00 0.03
4:53 pm 16:53 Cloudy 65 18.3 62 16.7 90 90 SSW 10 17 29.48 998 10 16 0.00 0.00
5:29 pm 17:29 Cloudy 62 16.7 60 15.6 93 93 NNW 15 24 29.50 999 10 16 0.00 0.00
5:53 pm 17:53 Cloudy 56 13.3 55 12.8 97 97 NW 9 15 29.49 999 10 16 0.00 0.00
6:22 pm 18:22 Cloudy with Light Rain 53 11.7 52 11.1 96 96 VRB 6 9 29.50 999 10 16 0.00 0.03
6:53 pm 18:53 Cloudy with Light Rain 51 10.6 51 10.6 100 100 VRB 6 9 29.51 999 7 11 0.00 0.03
7:31 pm 19:31 Cloudy with Rain 50 10 50 10 100 100 WNW 10 17 29.50 999 3 5 0.04 1.02
7:34 pm 19:34 Cloudy with Heavy Rain 50 10 50 10 100 100 WNW 9 15 29.50 999 3 4 0.04 1.02
7:46 pm 19:46 Cloudy with Light Rain 50 10 50 10 100 100 VRB 5 7 29.50 999 5 8 0.06 1.52
7:53 pm 19:53 Cloudy with Light Rain 50 10 49 9.4 96 96 N 3 6 29.50 999 9 14 0.06 1.52
8:07 pm 20:07 Cloudy with Heavy Rain 50 10 50 10 100 100 VRB 7 11 29.56 1001 2 3 0.12 3.05
8:20 pm 20:20 Cloudy with Heavy Rain 50 10 50 10 100 100 Calm 29.56 1001 3 5 0.24 6.10
8:39 pm 20:39 Cloudy with Light Rain 50 10 N/A N/A Calm 29.56 1001 3 5 0.28 7.11
8:53 pm 20:53 Cloudy with Light Rain 50 10 50 10 100 100 Calm 29.55 1001 10 16 0.28 7.11
9:53 pm 21:53 Cloudy with Mist and Fog 49 9.4 49 9.4 100 100 W 3 6 29.57 1001 5 8 0.00 0.03
10:53 pm 22:53 Cloudy 50 10 50 10 100 100 WSW 7 11 29.61 1003 9 14 0.00 0.00
11:06 pm 23:06 Cloudy 50 10 50 10 100 100 WSW 8 13 29.65 1004 10 16 0.00 0.00
11:21 pm 23:21 Cloudy 51 10.6 49 9.4 92 92 WSW 12 19 29.65 1004 10 16 0.00 0.00
11:37 pm 23:37 Cloudy 51 10.6 48 8.9 89 89 WSW 17 28 29.65 1004 10 16 0.00 0.00
11:53 pm 23:53 Cloudy 51 10.6 48 8.9 89 89 WSW 16 26 29.61 1003 10 16 0.00 0.00

Powered by AerisWeather